This is the latest recevied weather packets stored in our database for station/object W1GK. If no packets are shown the sender has not sent any weather packets the latest 10 day(s).
| Time | Temp. | Humidity | Pressure | Rain* | Wind** | Luminosity | Snow |
|---|---|---|---|---|---|---|---|
| 1787703598 | 41.11° C | 13% | 1014 hPa | 0 mm | - | 313 W/m² | - |
| 1787702999 | 40.56° C | 14% | 1014.1 hPa | 0 mm | - | 360 W/m² | - |
| 1787702397 | 41.11° C | 14% | 1014.1 hPa | 0 mm | - | 394 W/m² | - |
| 1787701798 | 41.11° C | 13% | 1014.1 hPa | 0 mm | - | 417 W/m² | - |
| 1787701196 | 41.11° C | 14% | 1014.2 hPa | 0 mm | - | 438 W/m² | - |
| 1787700598 | 41.11° C | 14% | 1014.3 hPa | 0 mm | - | 471 W/m² | - |
| 1787699997 | 40° C | 14% | 1014.4 hPa | 0 mm | - | 506 W/m² | - |
| 1787699397 | 40° C | 14% | 1014.5 hPa | 0 mm | - | 77 W/m² | - |
| 1787698797 | 40.56° C | 14% | 1014.5 hPa | 0 mm | - | 234 W/m² | - |
| 1787698197 | 40.56° C | 14% | 1014.6 hPa | 0 mm | - | 197 W/m² | - |
| 1787697597 | 41.11° C | 14% | 1014.7 hPa | 0 mm | - | 587 W/m² | - |
| 1787696997 | 41.11° C | 14% | 1014.9 hPa | 0 mm | - | 621 W/m² | - |
| 1787696396 | 41.67° C | 14% | 1015 hPa | 0 mm | - | 640 W/m² | - |
| 1787695797 | 41.11° C | 15% | 1015.2 hPa | 0 mm | - | 659 W/m² | - |
| 1787695201 | 41.67° C | 15% | 1015.3 hPa | 0 mm | - | 679 W/m² | - |
| 1787694599 | 41.11° C | 15% | 1015.5 hPa | 0 mm | - | 698 W/m² | - |
| 1787693999 | 41.67° C | 15% | 1015.6 hPa | 0 mm | - | 719 W/m² | - |
| 1787693398 | 41.67° C | 15% | 1015.7 hPa | 0 mm | - | 540 W/m² | - |
| 1787692798 | 41.11° C | 15% | 1015.9 hPa | 0 mm | - | 195 W/m² | - |
| 1787692199 | 41.67° C | 15% | 1016 hPa | 0 mm | - | 54 W/m² | - |
| 1787691596 | 40.56° C | 16% | 1016.2 hPa | 0 mm | - | 162 W/m² | - |
| 1787690998 | 41.11° C | 15% | 1016.4 hPa | 0 mm | - | 541 W/m² | - |
| 1787690396 | 40.56° C | 15% | 1016.5 hPa | 0 mm | - | 793 W/m² | - |
| 1787689797 | 41.11° C | 15% | 1016.7 hPa | 0 mm | - | 812 W/m² | - |
| 1787689196 | 40.56° C | 16% | 1016.8 hPa | 0 mm | - | 819 W/m² | - |
* Rain latest hour (hover to see other rain measurements)
** Current wind speed in m/s (hover to see current wind gust speed)